TimeCST,TemperatureF,Dew PointF,Humidity,Sea Level PressureIn,VisibilityMPH,Wind Direction,Wind SpeedMPH,Gust SpeedMPH,PrecipitationIn,Events,Conditions,WindDirDegrees,DateUTC
12:56 AM,50.0,46.0,86,29.98,10.0,WNW,5.8,-,N/A,,Scattered Clouds,290,2012-11-07 06:56:00
1:56 AM,48.9,46.0,90,29.98,10.0,West,5.8,-,N/A,,Mostly Cloudy,280,2012-11-07 07:56:00
2:56 AM,46.9,45.0,93,29.96,10.0,West,4.6,-,N/A,,Clear,270,2012-11-07 08:56:00
3:56 AM,46.0,44.1,93,29.96,8.0,WSW,5.8,-,N/A,,Clear,250,2012-11-07 09:56:00
4:56 AM,45.0,43.0,93,29.97,7.0,West,4.6,-,N/A,,Clear,260,2012-11-07 10:56:00
5:56 AM,43.0,42.1,97,29.99,7.0,West,3.5,-,N/A,,Clear,270,2012-11-07 11:56:00
6:56 AM,44.1,42.1,93,30.00,6.0,West,4.6,-,N/A,,Clear,280,2012-11-07 12:56:00
7:29 AM,46.4,42.8,87,30.01,8.0,West,4.6,-,N/A,,Partly Cloudy,280,2012-11-07 13:29:00
7:56 AM,48.9,45.0,86,30.01,10.0,WSW,4.6,-,N/A,,Clear,250,2012-11-07 13:56:00
8:56 AM,54.0,43.0,66,30.01,10.0,West,9.2,-,N/A,,Clear,280,2012-11-07 14:56:00
9:56 AM,55.9,41.0,57,30.01,10.0,WNW,8.1,-,N/A,,Clear,290,2012-11-07 15:56:00
10:56 AM,59.0,39.0,48,29.99,10.0,WNW,13.8,18.4,N/A,,Partly Cloudy,300,2012-11-07 16:56:00
11:56 AM,61.0,36.0,39,29.95,10.0,NNW,9.2,18.4,N/A,,Partly Cloudy,340,2012-11-07 17:56:00
12:56 PM,59.0,32.0,36,29.94,10.0,NW,9.2,17.3,N/A,,Scattered Clouds,310,2012-11-07 18:56:00
1:56 PM,60.1,34.0,38,29.93,10.0,NNW,9.2,-,N/A,,Scattered Clouds,340,2012-11-07 19:56:00
2:56 PM,62.1,35.1,37,29.93,10.0,NNW,13.8,18.4,N/A,,Mostly Cloudy,330,2012-11-07 20:56:00
3:56 PM,59.0,37.0,44,29.95,10.0,NNW,6.9,-,N/A,,Overcast,330,2012-11-07 21:56:00
4:56 PM,57.0,37.0,47,29.98,10.0,NW,4.6,-,N/A,,Overcast,310,2012-11-07 22:56:00
5:56 PM,55.9,37.9,51,30.02,10.0,North,16.1,20.7,0.00,,Overcast,350,2012-11-07 23:56:00
6:56 PM,53.1,35.1,50,30.05,10.0,North,12.7,-,N/A,,Mostly Cloudy,360,2012-11-08 00:56:00
7:56 PM,51.1,35.1,54,30.07,10.0,NW,5.8,-,N/A,,Clear,320,2012-11-08 01:56:00
8:56 PM,48.9,36.0,61,30.10,10.0,NW,5.8,-,N/A,,Clear,310,2012-11-08 02:56:00
9:56 PM,46.9,36.0,66,30.10,10.0,NNW,6.9,-,N/A,,Clear,330,2012-11-08 03:56:00
10:56 PM,45.0,37.0,74,30.10,10.0,NNW,5.8,-,N/A,,Clear,340,2012-11-08 04:56:00
11:56 PM,44.1,37.0,76,30.11,10.0,NNW,5.8,-,N/A,,Clear,340,2012-11-08 05:56:00